TRA431N EHRD-LIRZ

Flight info

Callsign TRA431N
Flight time 1h 40m
Altitude 39000
Route WOODY N872 NIK M624 REMBA DCT SUTAL DCT GTQ DCT DEVDI DCT ODINA DCT LOGDI DCT LOMED DCT VERUN Q25 LAKOX
Aircraft B738/M-SDE2E3FGHIJ1P2RWXY/LB1

Departure

Time 2026-04-25 16:02
Airport Rotterdam The Hague Airport (EHRD)

Arrival

Time 2026-04-25 17:43
Airport Perugia San Francesco d'Assisi – Umbria International Airport (LIRZ)
Time Latitude Longitude Altitude Speed Heading
2026-04-25 14:54 51.95092 4.43426 0 ft 0 kts 326°
2026-04-25 15:53 51.95093 4.43425 0 ft 1 kts 326°
2026-04-25 15:53 51.95099 4.43418 1 ft 1 kts 326°
2026-04-25 15:53 51.95110 4.43407 1 ft 2 kts 326°
2026-04-25 15:53 51.95125 4.43408 0 ft 3 kts 18°
2026-04-25 15:54 51.95139 4.43427 2 ft 3 kts 47°
2026-04-25 15:54 51.95151 4.43455 0 ft 3 kts 56°
2026-04-25 15:54 51.95167 4.43490 0 ft 4 kts 40°
2026-04-25 15:54 51.95194 4.43485 0 ft 4 kts 334°
2026-04-25 15:55 51.95221 4.43459 0 ft 5 kts 328°
2026-04-25 15:55 51.95252 4.43441 0 ft 5 kts 13°
2026-04-25 15:55 51.95277 4.43486 0 ft 6 kts 57°
2026-04-25 15:55 51.95300 4.43544 0 ft 7 kts 57°
2026-04-25 15:56 51.95329 4.43614 0 ft 8 kts 56°
2026-04-25 15:56 51.95363 4.43701 0 ft 10 kts 57°
2026-04-25 15:56 51.95403 4.43801 0 ft 11 kts 57°
2026-04-25 15:56 51.95449 4.43915 0 ft 13 kts 57°
2026-04-25 15:57 51.95499 4.44042 0 ft 14 kts 58°
2026-04-25 15:57 51.95553 4.44178 0 ft 14 kts 56°
2026-04-25 15:57 51.95607 4.44309 0 ft 14 kts 56°
2026-04-25 15:57 51.95657 4.44437 0 ft 13 kts 58°
2026-04-25 15:58 51.95706 4.44559 1 ft 13 kts 57°
2026-04-25 15:58 51.95754 4.44678 0 ft 12 kts 56°
2026-04-25 15:58 51.95800 4.44793 0 ft 12 kts 57°
2026-04-25 15:58 51.95845 4.44907 0 ft 12 kts 58°
2026-04-25 15:59 51.95874 4.44981 0 ft 12 kts 57°
2026-04-25 15:59 51.95917 4.45089 0 ft 11 kts 57°
2026-04-25 15:59 51.95959 4.45194 0 ft 11 kts 57°
2026-04-25 15:59 51.96000 4.45296 0 ft 11 kts 57°
2026-04-25 16:00 51.96040 4.45395 0 ft 10 kts 56°
2026-04-25 16:00 51.96066 4.45459 1 ft 10 kts 57°
2026-04-25 16:00 51.96116 4.45585 0 ft 10 kts 57°
2026-04-25 16:00 51.96167 4.45648 0 ft 10 kts
2026-04-25 16:01 51.96234 4.45571 0 ft 9 kts 307°
2026-04-25 16:01 51.96255 4.45510 0 ft 9 kts 292°
2026-04-25 16:01 51.96243 4.45415 0 ft 10 kts 238°
2026-04-25 16:01 51.96104 4.45063 1 ft 75 kts 237°
2026-04-25 16:02 51.95681 4.44005 1 ft 145 kts 237°
2026-04-25 16:02 51.95079 4.42498 578 ft 157 kts 240°
2026-04-25 16:02 51.94645 4.40868 1314 ft 166 kts 270°
2026-04-25 16:02 51.94899 4.38926 1818 ft 190 kts 291°
2026-04-25 16:03 51.95369 4.36844 2361 ft 203 kts 292°
2026-04-25 16:03 51.95855 4.34631 2954 ft 215 kts 292°
2026-04-25 16:03 51.96099 4.32197 3756 ft 224 kts 269°
2026-04-25 16:03 51.95890 4.29629 4360 ft 238 kts 264°
2026-04-25 16:04 51.95639 4.26924 5113 ft 246 kts 265°
2026-04-25 16:04 51.95400 4.24180 6024 ft 246 kts 265°
2026-04-25 16:04 51.95128 4.21439 6895 ft 249 kts 257°
2026-04-25 16:04 51.94244 4.18947 7683 ft 260 kts 227°
2026-04-25 16:05 51.92673 4.17428 8469 ft 272 kts 197°
2026-04-25 16:05 51.90800 4.17428 9251 ft 280 kts 163°
2026-04-25 16:05 51.87250 4.20240 10781 ft 289 kts 153°
2026-04-25 16:06 51.85464 4.21759 11546 ft 292 kts 154°
2026-04-25 16:06 51.83651 4.23271 12335 ft 294 kts 154°
2026-04-25 16:06 51.81815 4.24785 13125 ft 298 kts 155°
2026-04-25 16:06 51.79955 4.26308 13947 ft 301 kts 155°
2026-04-25 16:07 51.78076 4.27841 14703 ft 304 kts 155°
2026-04-25 16:07 51.76824 4.28861 15235 ft 305 kts 155°
2026-04-25 16:07 51.74276 4.30933 16292 ft 308 kts 155°
2026-04-25 16:07 51.72352 4.32496 17038 ft 311 kts 155°
2026-04-25 16:08 51.70408 4.34073 17796 ft 314 kts 155°
2026-04-25 16:08 51.68444 4.35665 18550 ft 318 kts 155°
2026-04-25 16:08 51.66454 4.37275 19184 ft 322 kts 155°
2026-04-25 16:08 51.64444 4.38898 19812 ft 326 kts 155°
2026-04-25 16:09 51.62361 4.40373 20421 ft 328 kts 168°
2026-04-25 16:09 51.60111 4.40654 21034 ft 324 kts 189°
2026-04-25 16:09 51.57874 4.40234 21691 ft 326 kts 191°
2026-04-25 16:09 51.55602 4.39729 22315 ft 330 kts 192°
2026-04-25 16:10 51.53314 4.39219 22945 ft 334 kts 192°
2026-04-25 16:10 51.50995 4.38717 23561 ft 338 kts 192°
2026-04-25 16:10 51.48650 4.38227 24110 ft 342 kts 191°
2026-04-25 16:10 51.46284 4.37744 24651 ft 344 kts 191°
2026-04-25 16:11 51.43911 4.37265 25206 ft 345 kts 191°
2026-04-25 16:11 51.41515 4.36779 25730 ft 347 kts 192°
2026-04-25 16:11 51.39213 4.35744 26207 ft 343 kts 209°
2026-04-25 16:11 51.37063 4.34070 26740 ft 344 kts 210°
2026-04-25 16:12 51.34904 4.32382 27260 ft 346 kts 210°
2026-04-25 16:12 51.32719 4.30716 27754 ft 349 kts 209°
2026-04-25 16:12 51.30515 4.29056 28268 ft 351 kts 209°
2026-04-25 16:12 51.29052 4.27944 28614 ft 352 kts 210°
2026-04-25 16:13 51.26086 4.25681 29279 ft 355 kts 210°
2026-04-25 16:13 51.23851 4.23978 29748 ft 357 kts 210°
2026-04-25 16:13 51.21600 4.22267 30204 ft 360 kts 210°
2026-04-25 16:13 51.19276 4.20729 30569 ft 367 kts 197°
2026-04-25 16:14 51.16700 4.20457 30926 ft 379 kts 175°
2026-04-25 16:14 51.14167 4.21714 31313 ft 388 kts 154°
2026-04-25 16:14 51.11960 4.24241 31693 ft 393 kts 143°
2026-04-25 16:14 51.09874 4.27073 32040 ft 396 kts 141°
2026-04-25 16:15 51.07824 4.29940 32364 ft 399 kts 141°
2026-04-25 16:15 51.05739 4.32846 32709 ft 401 kts 141°
2026-04-25 16:15 51.03618 4.35766 33063 ft 403 kts 142°
2026-04-25 16:15 51.01488 4.38661 33399 ft 405 kts 142°
2026-04-25 16:16 50.99338 4.41559 33739 ft 406 kts 142°
2026-04-25 16:16 50.97176 4.44461 34066 ft 408 kts 142°
2026-04-25 16:16 50.95002 4.47374 34350 ft 410 kts 142°
2026-04-25 16:16 50.92814 4.50303 34616 ft 412 kts 142°
2026-04-25 16:17 50.90625 4.53229 34896 ft 413 kts 142°
2026-04-25 16:17 50.88498 4.56327 35155 ft 416 kts 138°
2026-04-25 16:17 50.86440 4.59570 35415 ft 418 kts 137°
2026-04-25 16:17 50.84394 4.62858 35653 ft 420 kts 137°
2026-04-25 16:18 50.82340 4.66152 35902 ft 421 kts 137°
2026-04-25 16:18 50.78183 4.72727 36380 ft 424 kts 137°
2026-04-25 16:18 50.76083 4.76018 36605 ft 426 kts 137°
2026-04-25 16:19 50.73971 4.79318 36845 ft 427 kts 138°
2026-04-25 16:19 50.71851 4.82618 37058 ft 429 kts 138°
2026-04-25 16:19 50.69725 4.85923 37262 ft 431 kts 138°
2026-04-25 16:20 50.65411 4.92507 37684 ft 432 kts 142°
2026-04-25 16:20 50.63106 4.95560 37887 ft 433 kts 143°
2026-04-25 16:20 50.58391 5.01491 38290 ft 435 kts 144°
2026-04-25 16:21 50.56021 5.04445 38515 ft 435 kts 144°
2026-04-25 16:21 50.53650 5.07413 38709 ft 436 kts 144°
2026-04-25 16:21 50.51273 5.10399 38862 ft 438 kts 144°
2026-04-25 16:21 50.48894 5.13399 38991 ft 439 kts 144°
2026-04-25 16:22 50.46513 5.16405 39121 ft 441 kts 144°
2026-04-25 16:22 50.41703 5.22476 39178 ft 447 kts 144°
2026-04-25 16:23 50.36821 5.28625 39185 ft 454 kts 144°
2026-04-25 16:23 50.31852 5.34865 39179 ft 461 kts 144°
2026-04-25 16:24 50.26811 5.41176 39175 ft 466 kts 144°
2026-04-25 16:24 50.21730 5.47523 39165 ft 469 kts 144°
2026-04-25 16:25 50.16624 5.53882 39158 ft 470 kts 144°
2026-04-25 16:25 50.11517 5.60224 39157 ft 469 kts 144°
2026-04-25 16:26 50.06420 5.66536 39151 ft 467 kts 144°
2026-04-25 16:26 50.01337 5.72812 39145 ft 465 kts 144°
2026-04-25 16:27 49.96280 5.79039 39137 ft 462 kts 144°
2026-04-25 16:27 49.91248 5.85217 39134 ft 460 kts 144°
2026-04-25 16:28 49.86240 5.91351 39125 ft 458 kts 144°
2026-04-25 16:28 49.81250 5.97444 39117 ft 456 kts 144°
2026-04-25 16:29 49.76276 6.03502 39116 ft 455 kts 144°
2026-04-25 16:29 49.71339 6.09499 39108 ft 454 kts 144°
2026-04-25 16:30 49.66362 6.15528 39106 ft 455 kts 144°
2026-04-25 16:30 49.61378 6.21551 39103 ft 456 kts 144°
2026-04-25 16:31 49.56373 6.27583 39105 ft 457 kts 144°
2026-04-25 16:31 49.51361 6.33610 39112 ft 457 kts 144°
2026-04-25 16:32 49.46259 6.39441 39094 ft 456 kts 152°
2026-04-25 16:32 49.40551 6.43559 39115 ft 453 kts 159°
2026-04-25 16:33 49.34745 6.47369 39115 ft 454 kts 159°
2026-04-25 16:33 49.28955 6.51225 39116 ft 454 kts 159°
2026-04-25 16:34 49.23174 6.55119 39120 ft 453 kts 159°
2026-04-25 16:34 49.17403 6.59008 39117 ft 453 kts 159°
2026-04-25 16:35 49.11640 6.62879 39113 ft 452 kts 159°
2026-04-25 16:35 49.05897 6.66726 39114 ft 450 kts 159°
2026-04-25 16:36 49.00165 6.70555 39115 ft 449 kts 159°
2026-04-25 16:36 48.94465 6.74395 39113 ft 448 kts 158°
2026-04-25 16:37 48.88790 6.78282 39113 ft 447 kts 158°
2026-04-25 16:37 48.83129 6.82155 39107 ft 446 kts 158°
2026-04-25 16:38 48.77476 6.86004 39117 ft 445 kts 158°
2026-04-25 16:38 48.71867 6.89809 39111 ft 445 kts 158°
2026-04-25 16:39 48.66223 6.93628 39118 ft 444 kts 158°
2026-04-25 16:39 48.60576 6.97439 39107 ft 444 kts 158°
2026-04-25 16:40 48.54928 7.01242 39110 ft 444 kts 158°
2026-04-25 16:40 48.49274 7.05039 39112 ft 445 kts 158°
2026-04-25 16:41 48.43616 7.08830 39105 ft 445 kts 158°
2026-04-25 16:41 48.35113 7.14510 39093 ft 446 kts 158°
2026-04-25 16:42 48.29444 7.18285 39084 ft 446 kts 158°
2026-04-25 16:42 48.23771 7.22054 39083 ft 446 kts 158°
2026-04-25 16:43 48.18099 7.25813 39083 ft 445 kts 158°
2026-04-25 16:43 48.12425 7.29564 39070 ft 446 kts 158°
2026-04-25 16:44 48.06752 7.33305 39072 ft 445 kts 158°
2026-04-25 16:44 48.01085 7.37034 39073 ft 445 kts 158°
2026-04-25 16:45 47.95460 7.40726 39075 ft 445 kts 158°
2026-04-25 16:45 47.89798 7.44434 39074 ft 444 kts 158°
2026-04-25 16:46 47.84139 7.48130 39076 ft 444 kts 158°
2026-04-25 16:46 47.80356 7.50598 39078 ft 444 kts 158°
2026-04-25 16:47 47.73743 7.54901 39078 ft 443 kts 158°
2026-04-25 16:47 47.67243 7.59397 39073 ft 444 kts 156°
2026-04-25 16:48 47.62577 7.62727 39077 ft 444 kts 156°
2026-04-25 16:48 47.57009 7.66676 39072 ft 444 kts 156°
2026-04-25 16:49 47.51432 7.70598 39072 ft 444 kts 156°
2026-04-25 16:49 47.45851 7.74501 39074 ft 444 kts 156°
2026-04-25 16:50 47.40266 7.78396 39073 ft 444 kts 156°
2026-04-25 16:50 47.34721 7.82254 39063 ft 443 kts 156°
2026-04-25 16:51 47.29145 7.86127 39065 ft 443 kts 156°
2026-04-25 16:51 47.24467 7.89367 39062 ft 443 kts 156°
2026-04-25 16:52 47.17973 7.93856 39057 ft 444 kts 156°
2026-04-25 16:52 47.12390 7.97706 39063 ft 444 kts 156°
2026-04-25 16:53 47.03998 8.03476 39075 ft 444 kts 156°
2026-04-25 16:54 46.98405 8.07310 39080 ft 444 kts 156°
2026-04-25 16:54 46.92810 8.11137 39079 ft 444 kts 156°
2026-04-25 16:55 46.87206 8.14960 39080 ft 444 kts 156°
2026-04-25 16:55 46.81606 8.18772 39079 ft 444 kts 156°
2026-04-25 16:56 46.75997 8.22582 39077 ft 444 kts 156°
2026-04-25 16:56 46.70388 8.26383 39081 ft 445 kts 156°
2026-04-25 16:57 46.64813 8.30152 39077 ft 445 kts 156°
2026-04-25 16:57 46.59155 8.33968 39077 ft 445 kts 156°
2026-04-25 16:58 46.53576 8.37723 39070 ft 445 kts 156°
2026-04-25 16:58 46.47963 8.41492 39057 ft 444 kts 156°
2026-04-25 16:59 46.42361 8.45246 39054 ft 443 kts 156°
2026-04-25 16:59 46.36762 8.48988 39027 ft 443 kts 156°
2026-04-25 17:00 46.31167 8.52719 39013 ft 442 kts 155°
2026-04-25 17:00 46.25583 8.56435 39001 ft 442 kts 155°
2026-04-25 17:01 46.20002 8.60142 38999 ft 442 kts 155°
2026-04-25 17:01 46.14404 8.63851 38999 ft 444 kts 155°
2026-04-25 17:02 46.08926 8.67999 38990 ft 447 kts 143°
2026-04-25 17:02 46.04020 8.73526 38988 ft 448 kts 141°
2026-04-25 17:03 45.99155 8.79157 38992 ft 449 kts 141°
2026-04-25 17:03 45.94261 8.84751 38997 ft 449 kts 141°
2026-04-25 17:04 45.89347 8.90303 38992 ft 449 kts 141°
2026-04-25 17:04 45.84431 8.95827 38991 ft 448 kts 141°
2026-04-25 17:05 45.79530 9.01320 38979 ft 447 kts 141°
2026-04-25 17:05 45.72190 9.09528 38986 ft 446 kts 141°
2026-04-25 17:06 45.67306 9.14974 38974 ft 445 kts 141°
2026-04-25 17:06 45.62422 9.20407 38972 ft 444 kts 141°
2026-04-25 17:07 45.57541 9.25826 38789 ft 444 kts 143°
2026-04-25 17:07 45.55099 9.28530 38982 ft 446 kts 141°
2026-04-25 17:07 45.52643 9.31249 38973 ft 448 kts 141°
2026-04-25 17:08 45.47705 9.36706 38974 ft 451 kts 141°
2026-04-25 17:08 45.42732 9.42190 38973 ft 453 kts 141°
2026-04-25 17:09 45.37740 9.47682 38968 ft 454 kts 141°
2026-04-25 17:09 45.32738 9.53172 38975 ft 454 kts 141°
2026-04-25 17:10 45.27772 9.58608 38972 ft 453 kts 141°
2026-04-25 17:10 45.22786 9.64055 38986 ft 451 kts 141°
2026-04-25 17:11 45.17783 9.69508 38985 ft 450 kts 141°
2026-04-25 17:11 45.12832 9.74893 38991 ft 448 kts 141°
2026-04-25 17:12 45.07923 9.80219 38983 ft 447 kts 141°
2026-04-25 17:12 45.02993 9.85558 38994 ft 446 kts 141°
2026-04-25 17:13 44.99696 9.89121 38986 ft 445 kts 141°
2026-04-25 17:13 44.93143 9.96188 38993 ft 445 kts 141°
2026-04-25 17:14 44.88212 10.01492 39002 ft 446 kts 141°
2026-04-25 17:14 44.83275 10.06790 38998 ft 447 kts 141°
2026-04-25 17:15 44.78321 10.12097 38999 ft 448 kts 141°
2026-04-25 17:15 44.73356 10.17404 39001 ft 449 kts 141°
2026-04-25 17:16 44.68446 10.22841 39005 ft 450 kts 139°
2026-04-25 17:16 44.63684 10.28559 39009 ft 451 kts 138°
2026-04-25 17:17 44.58926 10.34303 39019 ft 452 kts 138°
2026-04-25 17:17 44.54141 10.40017 39036 ft 452 kts 138°
2026-04-25 17:18 44.49334 10.45714 39055 ft 453 kts 138°
2026-04-25 17:18 44.44518 10.51402 39067 ft 453 kts 139°
2026-04-25 17:19 44.39694 10.57088 39073 ft 453 kts 139°
2026-04-25 17:19 44.34873 10.62760 39078 ft 453 kts 139°
2026-04-25 17:20 44.30022 10.68456 38524 ft 460 kts 139°
2026-04-25 17:20 44.27579 10.71319 37941 ft 457 kts 139°
2026-04-25 17:20 44.25156 10.74154 37358 ft 454 kts 139°
2026-04-25 17:21 44.22737 10.76982 36761 ft 453 kts 139°
2026-04-25 17:21 44.20328 10.79796 36136 ft 452 kts 138°
2026-04-25 17:21 44.17917 10.82609 35490 ft 452 kts 138°
2026-04-25 17:21 44.15533 10.85388 34823 ft 453 kts 139°
2026-04-25 17:22 44.13113 10.88207 34142 ft 454 kts 138°
2026-04-25 17:22 44.12294 10.89159 33887 ft 454 kts 138°
2026-04-25 17:22 44.08261 10.93848 32773 ft 452 kts 138°
2026-04-25 17:22 44.05860 10.96634 32234 ft 448 kts 139°
2026-04-25 17:23 44.03476 10.99398 31713 ft 444 kts 139°
2026-04-25 17:23 44.01129 11.02156 31207 ft 440 kts 137°
2026-04-25 17:23 43.98848 11.04965 30713 ft 436 kts 136°
2026-04-25 17:23 43.96614 11.07778 30225 ft 432 kts 136°
2026-04-25 17:24 43.94402 11.10577 29672 ft 429 kts 136°
2026-04-25 17:24 43.92205 11.13351 29152 ft 425 kts 136°
2026-04-25 17:24 43.90025 11.16090 28650 ft 421 kts 136°
2026-04-25 17:24 43.87864 11.18790 28161 ft 417 kts 136°
2026-04-25 17:25 43.85710 11.21473 27662 ft 414 kts 136°
2026-04-25 17:25 43.83575 11.24127 27161 ft 411 kts 136°
2026-04-25 17:25 43.81455 11.26758 26681 ft 408 kts 137°
2026-04-25 17:25 43.79347 11.29369 26197 ft 406 kts 137°
2026-04-25 17:26 43.77249 11.31970 25694 ft 404 kts 141°
2026-04-25 17:26 43.75155 11.34563 25219 ft 404 kts 141°
2026-04-25 17:26 43.73064 11.37146 24744 ft 404 kts 141°
2026-04-25 17:26 43.70951 11.39751 24249 ft 411 kts 141°
2026-04-25 17:27 43.68804 11.42394 23747 ft 413 kts 141°
2026-04-25 17:27 43.66668 11.45025 23181 ft 410 kts 141°
2026-04-25 17:27 43.64543 11.47641 22660 ft 407 kts 141°
2026-04-25 17:27 43.63831 11.48518 22488 ft 406 kts 141°
2026-04-25 17:28 43.60360 11.52784 21670 ft 399 kts 141°
2026-04-25 17:28 43.58295 11.55319 21192 ft 396 kts 141°
2026-04-25 17:28 43.56247 11.57830 20715 ft 392 kts 141°
2026-04-25 17:28 43.54215 11.60319 20245 ft 389 kts 141°
2026-04-25 17:29 43.52198 11.62786 19773 ft 386 kts 141°
2026-04-25 17:29 43.50196 11.65233 19302 ft 384 kts 141°
2026-04-25 17:29 43.48202 11.67668 18839 ft 381 kts 141°
2026-04-25 17:29 43.46225 11.70080 18368 ft 379 kts 141°
2026-04-25 17:30 43.44255 11.72481 17840 ft 377 kts 141°
2026-04-25 17:30 43.42299 11.74863 17339 ft 374 kts 141°
2026-04-25 17:30 43.40364 11.77219 16866 ft 370 kts 140°
2026-04-25 17:30 43.38443 11.79555 16412 ft 367 kts 140°
2026-04-25 17:31 43.36565 11.81836 15963 ft 364 kts 140°
2026-04-25 17:31 43.34677 11.84129 15516 ft 361 kts 140°
2026-04-25 17:31 43.32799 11.86407 15057 ft 359 kts 140°
2026-04-25 17:31 43.30934 11.88667 14622 ft 357 kts 140°
2026-04-25 17:32 43.29079 11.90912 14181 ft 355 kts 140°
2026-04-25 17:32 43.27277 11.93221 13702 ft 354 kts 135°
2026-04-25 17:32 43.25608 11.95691 13219 ft 352 kts 133°
2026-04-25 17:32 43.23982 11.98201 12747 ft 350 kts 133°
2026-04-25 17:33 43.22369 12.00690 12282 ft 348 kts 133°
2026-04-25 17:33 43.20752 12.03155 11856 ft 346 kts 133°
2026-04-25 17:33 43.19162 12.05555 11710 ft 335 kts 133°
2026-04-25 17:33 43.17616 12.07877 11541 ft 325 kts 134°
2026-04-25 17:34 43.16156 12.10176 11398 ft 316 kts 125°
2026-04-25 17:34 43.15468 12.11966 11205 ft 314 kts 109°
2026-04-25 17:34 43.14920 12.14806 10884 ft 311 kts 110°
2026-04-25 17:34 43.13778 12.17318 10558 ft 307 kts 137°
2026-04-25 17:35 43.12065 12.18915 10242 ft 301 kts 159°
2026-04-25 17:35 43.10135 12.19887 10119 ft 291 kts 163°
2026-04-25 17:35 43.08243 12.20777 9900 ft 286 kts 162°
2026-04-25 17:35 43.06363 12.21670 9565 ft 285 kts 163°
2026-04-25 17:36 43.04496 12.22571 9270 ft 284 kts 162°
2026-04-25 17:36 43.02637 12.23473 8964 ft 283 kts 162°
2026-04-25 17:36 43.00799 12.24365 8704 ft 279 kts 162°
2026-04-25 17:36 42.98978 12.25248 8461 ft 276 kts 162°
2026-04-25 17:37 42.97171 12.26124 8199 ft 274 kts 162°
2026-04-25 17:37 42.95387 12.26987 7949 ft 271 kts 162°
2026-04-25 17:37 42.93655 12.27970 7692 ft 271 kts 148°
2026-04-25 17:37 42.92298 12.29752 7460 ft 271 kts 131°
2026-04-25 17:38 42.91112 12.31736 7208 ft 269 kts 130°
2026-04-25 17:38 42.90334 12.33044 7043 ft 268 kts 130°
2026-04-25 17:38 42.88832 12.35730 6692 ft 266 kts 118°
2026-04-25 17:38 42.88414 12.38167 6442 ft 266 kts 88°
2026-04-25 17:39 42.88901 12.40564 6224 ft 264 kts 59°
2026-04-25 17:39 42.90085 12.42441 5968 ft 260 kts 39°
2026-04-25 17:39 42.91476 12.44000 5726 ft 258 kts 38°
2026-04-25 17:39 42.92886 12.45500 5407 ft 258 kts 31°
2026-04-25 17:40 42.94614 12.46230 4882 ft 259 kts
2026-04-25 17:40 42.96321 12.46632 4652 ft 241 kts 12°
2026-04-25 17:40 42.97893 12.47211 4204 ft 227 kts 13°
2026-04-25 17:40 42.99383 12.47750 3771 ft 216 kts 12°
2026-04-25 17:41 43.00808 12.48273 3337 ft 207 kts 11°
2026-04-25 17:41 43.02177 12.48732 2921 ft 199 kts 11°
2026-04-25 17:41 43.03490 12.49186 2455 ft 193 kts 11°
2026-04-25 17:41 43.04772 12.49636 1955 ft 185 kts 11°
2026-04-25 17:42 43.05987 12.50052 1425 ft 179 kts 11°
2026-04-25 17:42 43.07143 12.50472 1061 ft 165 kts 12°
2026-04-25 17:42 43.08218 12.50839 826 ft 155 kts 11°
2026-04-25 17:42 43.09223 12.51190 669 ft 141 kts 11°
2026-04-25 17:43 43.09858 12.51416 668 ft 57 kts 14°
2026-04-25 17:43 43.10215 12.51540 671 ft 42 kts 14°
2026-04-25 17:43 43.10491 12.51636 670 ft 39 kts 14°
2026-04-25 17:43 43.10679 12.51701 668 ft 20 kts 14°
2026-04-25 17:44 43.10764 12.51660 668 ft 15 kts 287°
2026-04-25 17:44 43.10776 12.51528 668 ft 14 kts 247°
2026-04-25 17:44 43.10693 12.51476 668 ft 13 kts 194°
2026-04-25 17:44 43.10604 12.51444 668 ft 14 kts 194°
2026-04-25 17:45 43.10498 12.51407 668 ft 18 kts 194°
2026-04-25 17:45 43.10411 12.51377 668 ft 20 kts 194°
2026-04-25 17:45 43.10217 12.51309 668 ft 22 kts 194°
2026-04-25 17:45 43.10071 12.51257 668 ft 21 kts 194°
2026-04-25 17:46 43.09929 12.51208 668 ft 21 kts 194°
2026-04-25 17:46 43.09815 12.51169 668 ft 14 kts 194°
2026-04-25 17:46 43.09753 12.51105 668 ft 11 kts 243°
2026-04-25 17:46 43.09721 12.51009 668 ft 11 kts 245°
2026-04-25 17:47 43.09691 12.50915 668 ft 11 kts 246°
2026-04-25 17:47 43.09661 12.50824 666 ft 10 kts 246°
2026-04-25 17:47 43.09632 12.50735 668 ft 10 kts 245°
2026-04-25 17:47 43.09603 12.50650 668 ft 10 kts 246°
2026-04-25 17:48 43.09550 12.50484 668 ft 9 kts 258°
2026-04-25 17:48 43.09582 12.50426 668 ft 7 kts 298°
2026-04-25 17:48 43.09574 12.50373 668 ft 5 kts 250°
2026-04-25 17:49 43.09571 12.50361 668 ft 0 kts 249°